Location: Newark
(46.7000°N, 60.6000°W)
Time: 14:07:37
(UTC+00:00)

deb Explorer IX - Visible Passes

Search period start: 31 October 2020 00:00
Search period end: 10 November 2020 00:00
Orbit: 537 x 1106 km, 38.8° (Epoch: 30 October)

Date Brightness Start Highest point End Pass type
(mag) Time Alt. Az. Time Alt. Az. Time Alt. Az.
31 Oct ? 07:30:01 17° SSE 07:30:01 17° SSE 07:33:43 10° ESE visible
31 Oct ? 09:11:19 13° SW 09:16:00 35° SSE 09:21:58 10° ESE visible
01 Nov ? 07:08:18 15° SE 07:08:18 15° SE 07:10:15 10° ESE visible
01 Nov ? 08:49:37 20° SW 08:52:44 35° SSE 08:58:32 10° ESE visible
02 Nov ? 06:46:32 11° ESE 06:46:32 11° ESE 06:46:48 10° ESE visible
02 Nov ? 08:27:50 28° SSW 08:29:30 34° SSE 08:35:07 10° ESE visible
02 Nov ? 10:10:29 10° WSW 10:15:59 40° S 10:22:15 10° ESE visible
03 Nov ? 08:06:01 33° S 08:06:16 33° SSE 08:11:41 10° ESE visible
03 Nov ? 09:47:23 10° WSW 09:52:42 39° S 09:58:49 10° ESE visible
04 Nov ? 07:44:11 29° SE 07:44:11 29° SE 07:48:17 10° ESE visible
04 Nov ? 09:25:29 16° WSW 09:29:27 38° S 09:35:23 10° ESE visible
05 Nov ? 07:22:20 22° ESE 07:22:20 22° ESE 07:24:52 10° ESE visible
05 Nov ? 09:03:38 24° SW 09:06:13 37° S 09:11:56 10° ESE visible
06 Nov ? 07:00:28 14° ESE 07:00:28 14° ESE 07:01:28 10° ESE visible
06 Nov ? 08:41:46 32° SSW 08:42:58 36° S 08:48:31 10° ESE visible
07 Nov ? 08:19:54 35° S 08:19:54 35° S 08:25:05 10° ESE visible
07 Nov ? 10:01:46 10° WSW 10:06:08 23° SSW 10:11:00 10° SSE visible
08 Nov ? 07:58:04 29° SSE 07:58:04 29° SSE 08:01:41 10° ESE visible
08 Nov ? 09:39:22 13° WSW 09:42:53 22° SSW 09:47:32 10° SSE visible
09 Nov ? 07:36:15 20° SE 07:36:15 20° SE 07:38:17 10° ESE visible
09 Nov ? 09:17:33 17° SW 09:19:40 21° SSW 09:24:03 10° SSE visible
